[[{"header":{"parameterUnit":"m.s-1","parameterCategory":2,"la1":30.2992,"la2":30.254,"lo1":-89.0895,"lo2":-89.0443,"dy":0.0025,"dx":0.0025,"nx":19,"ny":19,"refTime":"2026-03-12T03:00:00:Z","depth":"0","parameterNumber":2,"parameterNumberName":"U-component_of_CURRENTS"},"data":[0,0,0,0.2852,0.2853,0.2924,0.2924,0.2998,0.2999,0,0,0,0,0,0,0,0,0,0,0,0.282,0.2821,0.2851,0.2854,0.2924,0.2924,0.2998,0.2999,0,0,0,0,0,0,0,0,0,0,0,0.282,0.282,0.2821,0.2854,0.2923,0.2924,0.2998,0.2946,0,0,0,0,0,0,0,0,0,0,0.2879,0.2852,0.282,0.2821,0.2854,0.2923,0.2924,0.2944,0.295,0.2965,0,0.298,0,0.3,0.3004,0.3005,0,0,0,0.2844,0.2848,0.2874,0.2821,0.2855,0.2923,0.2889,0.2947,0.2953,0.2973,0.2982,0.2985,0.3001,0.3005,0.3005,0.3095,0.3095,0,0,0.284,0.2826,0.2869,0.2878,0.2879,0.2887,0.2891,0.2951,0.2956,0.2982,0.2987,0.3002,0.3006,0.3006,0.3095,0.3095,0,0,0,0.2835,0.2823,0.2847,0.2874,0.2893,0.2889,0.2894,0.2953,0.2963,0.2988,0.3003,0.3006,0.3007,0.3094,0.3095,0.3151,0,0,0,0.2833,0.2821,0.2846,0.2837,0.2892,0.2926,0.2894,0.2959,0.2966,0.3003,0.3006,0.3008,0.3094,0.3095,0.3149,0.313,0,0,0,0.2816,0.282,0.2831,0.2836,0.2873,0.2926,0.2939,0.296,0.2976,0.3005,0.3008,0.3094,0.3094,0.3147,0.3128,0.3242,0,0,0,0.2794,0.2806,0.283,0.2857,0.2872,0.2928,0.2939,0.2976,0.3,0.3006,0.3094,0.3095,0.3146,0.3127,0.3239,0.3248,0.3262,0,0,0.2794,0.2806,0.2823,0.2847,0.2895,0.2917,0.2982,0.3014,0.3019,0.3071,0.3073,0.315,0.3128,0.3241,0.3297,0.331,0,0,0,0.2814,0.2821,0.2841,0.2879,0.2928,0.2981,0.3025,0.3051,0.3105,0.3041,0.3151,0.3134,0.3206,0.3204,0.3215,0.3299,0.3099,0.3099,0.3099,0.2775,0.2817,0.2842,0.2902,0.2946,0.3031,0.3078,0.3122,0.3139,0.3174,0.3184,0.3302,0.33,0.3309,0.3395,0.321,0.321,0.321,0.3211,0.2768,0.2776,0.2836,0.2868,0.2947,0.3006,0.3126,0.3167,0.328,0.324,0.331,0.3264,0.3324,0.3411,0.3214,0.3214,0.3213,0.3213,0.3213,0.2728,0.2734,0.2761,0.2814,0.2882,0.2986,0.3102,0.3215,0.3294,0.3359,0.3422,0.342,0.3498,0.3437,0.3437,0.3438,0.3438,0.3438,0.3439,0.2666,0.2695,0.2697,0.2761,0.2792,0.2903,0.3113,0.3227,0.3404,0.3457,0.3459,0.3543,0.3371,0.3364,0.3445,0.3444,0.3443,0.3443,0.3442,0.2608,0.2612,0.2619,0.2638,0.2727,0.2803,0.3037,0.3294,0.3459,0.3532,0.3689,0.3541,0.353,0.352,0.3516,0.3632,0.3632,0.3632,0.3632,0.2548,0.2559,0.2542,0.2556,0.2618,0.2751,0.2906,0.3181,0.3556,0.3731,0.3816,0.377,0.3759,0.3758,0.3743,0.3742,0.3914,0.3914,0.3915,0.2504,0.2514,0.2475,0.2492,0.2549,0.2666,0.2772,0.3028,0.3611,0.3935,0.3941,0.3929,0.3866,0.3841,0.3836,0.3807,0.3803,0,0]},{"header":{"parameterUnit":"m.s-1","parameterCategory":2,"la1":30.2992,"la2":30.254,"lo1":-89.0895,"lo2":-89.0443,"dy":0.0025,"dx":0.0025,"nx":19,"ny":19,"refTime":"2026-03-12T03:00:00:Z","depth":"0","parameterNumber":3,"parameterNumberName":"V-component_of_CURRENTS"},"data":[0,0,0,0.0422,0.0421,0.0375,0.0375,0.0271,0.027,0,0,0,0,0,0,0,0,0,0,0,0.0437,0.0437,0.0422,0.0421,0.0375,0.0375,0.0271,0.027,0,0,0,0,0,0,0,0,0,0,0,0.0437,0.0437,0.0437,0.0421,0.0375,0.0375,0.0271,0.0314,0,0,0,0,0,0,0,0,0,0,0.0363,0.0387,0.0437,0.0437,0.0421,0.0375,0.0375,0.0316,0.0311,0.0283,0,0.0285,0,0.028,0.0263,0.0263,0,0,0,0.0408,0.0391,0.0383,0.0437,0.0421,0.0375,0.0392,0.0314,0.0308,0.0276,0.0283,0.028,0.0278,0.0263,0.0262,0.0237,0.0238,0,0,0.0411,0.042,0.0387,0.0379,0.0419,0.0394,0.0391,0.0311,0.0305,0.0283,0.0278,0.0277,0.0262,0.0261,0.0237,0.0237,0,0,0,0.0427,0.0422,0.0415,0.0383,0.0381,0.0393,0.0389,0.0309,0.0309,0.0276,0.0275,0.0261,0.026,0.0236,0.0237,0.0361,0,0,0,0.0428,0.0432,0.0417,0.042,0.0384,0.0351,0.0389,0.0314,0.0305,0.0276,0.0261,0.0259,0.0236,0.0236,0.0357,0.0421,0,0,0,0.0437,0.0433,0.0432,0.0421,0.0408,0.0352,0.0346,0.0312,0.0304,0.0263,0.0259,0.0235,0.0236,0.0353,0.0414,0.047,0,0,0,0.0441,0.0468,0.0432,0.0466,0.0409,0.0427,0.0347,0.0338,0.0312,0.0261,0.0236,0.0237,0.0352,0.0409,0.0465,0.0582,0.0613,0,0,0.0485,0.0474,0.0498,0.0466,0.0508,0.0431,0.0464,0.0387,0.0316,0.0255,0.0254,0.0358,0.0413,0.0469,0.0648,0.0678,0,0,0,0.052,0.054,0.0546,0.056,0.0548,0.055,0.0473,0.0434,0.0383,0.0308,0.0347,0.0377,0.0409,0.0469,0.0492,0.0431,0.0242,0.0242,0.0242,0.0587,0.0594,0.0648,0.0659,0.0666,0.0622,0.0614,0.0543,0.0457,0.0454,0.047,0.0587,0.0652,0.0671,0.0607,0.0453,0.0454,0.0454,0.0454,0.0684,0.0725,0.0737,0.079,0.0782,0.0796,0.0742,0.0685,0.0659,0.0569,0.0593,0.0586,0.0705,0.0626,0.0462,0.0461,0.046,0.0459,0.0459,0.0737,0.0761,0.0793,0.0873,0.093,0.0911,0.099,0.0901,0.0783,0.0809,0.0839,0.0837,0.0775,0.0812,0.0813,0.0813,0.0814,0.0814,0.0815,0.0773,0.0812,0.0892,0.0972,0.1042,0.1126,0.1137,0.1143,0.1082,0.0991,0.0991,0.0821,0.0695,0.0689,0.0823,0.0822,0.0821,0.082,0.0819,0.084,0.0854,0.0983,0.1066,0.1255,0.1449,0.1443,0.1489,0.1427,0.1411,0.1125,0.1077,0.1047,0.1027,0.1027,0.1241,0.1241,0.1241,0.1241,0.0877,0.0896,0.1083,0.1249,0.1448,0.1605,0.1879,0.1888,0.16,0.1436,0.1262,0.1199,0.1185,0.1154,0.1132,0.113,0.1365,0.1365,0.1365,0.0929,0.0985,0.1131,0.1303,0.1547,0.1807,0.2123,0.2312,0.182,0.1355,0.1157,0.1152,0.1036,0.1018,0.0944,0.0917,0.0903,0,0]}],[{"header":{"parameterUnit":"m.s-1","parameterCategory":2,"la1":30.2992,"la2":30.254,"lo1":-89.0895,"lo2":-89.0443,"dy":0.0025,"dx":0.0025,"nx":19,"ny":19,"refTime":"2026-03-12T03:00:00:Z","depth":"2","parameterNumber":2,"parameterNumberName":"U-component_of_CURRENTS"},"data":[0,0,0,0.2754,0.2756,0.2831,0.2831,0.2906,0.2906,0,0,0,0,0,0,0,0,0,0,0,0.2722,0.2722,0.2754,0.2756,0.2831,0.2831,0.2905,0.2906,0,0,0,0,0,0,0,0,0,0,0,0.2721,0.2722,0.2723,0.2757,0.2831,0.2831,0.2905,0.2852,0,0,0,0,0,0,0,0,0,0,0.2781,0.2755,0.2722,0.2723,0.2757,0.2831,0.2831,0.2849,0.2855,0.2869,0,0.2885,0,0.2905,0.2912,0.2912,0,0,0,0.2746,0.275,0.2776,0.2723,0.2758,0.2831,0.2795,0.2853,0.2859,0.2876,0.2887,0.289,0.2907,0.2912,0.2913,0.2999,0.3,0,0,0.2742,0.2729,0.2772,0.2781,0.2784,0.2792,0.2797,0.2857,0.2862,0.2887,0.2892,0.2908,0.2913,0.2913,0.2999,0.2999,0,0,0,0.2737,0.2726,0.2751,0.2777,0.2797,0.2795,0.28,0.2859,0.287,0.2893,0.2909,0.2913,0.2914,0.2999,0.2999,0.3056,0,0,0,0.2734,0.2724,0.2749,0.274,0.2796,0.2832,0.2801,0.2865,0.2873,0.2908,0.2913,0.2915,0.2998,0.2999,0.3054,0.3037,0,0,0,0.2717,0.2722,0.2734,0.274,0.2778,0.2832,0.2845,0.2867,0.2883,0.2912,0.2915,0.2998,0.2999,0.3052,0.3034,0.3143,0,0,0,0.2695,0.2708,0.2733,0.276,0.2778,0.2833,0.2845,0.2884,0.2908,0.2914,0.2998,0.2999,0.3051,0.3033,0.314,0.313,0.3143,0,0,0.2696,0.2708,0.2725,0.275,0.2797,0.2821,0.2885,0.2919,0.2926,0.2974,0.2977,0.3055,0.3034,0.3143,0.3177,0.3189,0,0,0,0.2716,0.2723,0.2742,0.2781,0.2829,0.2883,0.2929,0.2955,0.3011,0.2948,0.3055,0.3039,0.3108,0.3095,0.3104,0.3003,0.3003,0.3003,0.3003,0.2679,0.2719,0.2744,0.2803,0.2846,0.2931,0.2978,0.3023,0.3042,0.3077,0.3089,0.3203,0.3189,0.3196,0.3113,0.3114,0.3114,0.3114,0.3114,0.2672,0.268,0.2739,0.2771,0.2849,0.2909,0.3026,0.3068,0.318,0.3143,0.321,0.3155,0.321,0.3119,0.3118,0.3117,0.3117,0.3116,0.3116,0.2634,0.264,0.2668,0.2721,0.279,0.2892,0.3006,0.3118,0.3196,0.3259,0.3308,0.3306,0.3251,0.3336,0.3336,0.3337,0.3337,0.3337,0.3338,0.2575,0.2603,0.2607,0.2672,0.2704,0.2815,0.3019,0.3129,0.3294,0.3342,0.3343,0.3279,0.3271,0.3264,0.3344,0.3343,0.3342,0.3342,0.3341,0.2518,0.2524,0.2533,0.2553,0.2641,0.2703,0.2939,0.3179,0.334,0.3403,0.3418,0.3414,0.34,0.3391,0.3387,0.3494,0.3494,0.3494,0.3494,0.246,0.2472,0.2457,0.2472,0.2531,0.2646,0.2756,0.2936,0.3192,0.327,0.3279,0.3195,0.3196,0.3164,0.316,0.3148,0.3193,0.3192,0.3191,0.2417,0.2428,0.2391,0.2409,0.2462,0.2549,0.2571,0.2586,0.2846,0.3168,0.3116,0.3495,0.3393,0.3386,0.3352,0.334,0.3326,0,0]},{"header":{"parameterUnit":"m.s-1","parameterCategory":2,"la1":30.2992,"la2":30.254,"lo1":-89.0895,"lo2":-89.0443,"dy":0.0025,"dx":0.0025,"nx":19,"ny":19,"refTime":"2026-03-12T03:00:00:Z","depth":"2","parameterNumber":3,"parameterNumberName":"V-component_of_CURRENTS"},"data":[0,0,0,0.0353,0.0353,0.0309,0.0309,0.0206,0.0205,0,0,0,0,0,0,0,0,0,0,0,0.0367,0.0367,0.0353,0.0353,0.0309,0.0309,0.0206,0.0205,0,0,0,0,0,0,0,0,0,0,0,0.0367,0.0367,0.0367,0.0353,0.0309,0.0309,0.0206,0.0248,0,0,0,0,0,0,0,0,0,0,0.0294,0.0318,0.0367,0.0367,0.0353,0.0309,0.0309,0.025,0.0245,0.0216,0,0.0218,0,0.0214,0.0198,0.0198,0,0,0,0.034,0.0322,0.0314,0.0367,0.0352,0.0309,0.0325,0.0247,0.0242,0.0209,0.0217,0.0213,0.0212,0.0197,0.0197,0.0171,0.0171,0,0,0.0342,0.0351,0.0318,0.0311,0.0351,0.0327,0.0324,0.0244,0.0239,0.0217,0.0211,0.0211,0.0197,0.0196,0.017,0.0171,0,0,0,0.0358,0.0353,0.0347,0.0315,0.0314,0.0326,0.0323,0.0243,0.0243,0.021,0.0209,0.0196,0.0195,0.017,0.017,0.0293,0,0,0,0.0359,0.0363,0.0349,0.0352,0.0316,0.0284,0.0323,0.0248,0.0239,0.021,0.0196,0.0194,0.0169,0.017,0.0289,0.0353,0,0,0,0.0367,0.0364,0.0363,0.0353,0.0341,0.0286,0.028,0.0246,0.0239,0.0198,0.0194,0.0169,0.017,0.0285,0.0345,0.0397,0,0,0,0.0371,0.0398,0.0363,0.0397,0.0341,0.0359,0.0281,0.0272,0.0247,0.0196,0.0169,0.017,0.0284,0.034,0.0393,0.0492,0.0521,0,0,0.0415,0.0404,0.0428,0.0396,0.0438,0.0363,0.0394,0.0319,0.025,0.0188,0.0187,0.029,0.0345,0.0396,0.0556,0.0584,0,0,0,0.0449,0.0469,0.0475,0.0488,0.0476,0.0478,0.0403,0.0364,0.0315,0.0241,0.0278,0.0309,0.0338,0.0387,0.0409,0.0176,0.0176,0.0175,0.0175,0.0515,0.0522,0.0575,0.0585,0.0591,0.0547,0.0539,0.047,0.0386,0.0384,0.04,0.0513,0.0567,0.0585,0.0383,0.0383,0.0384,0.0384,0.0384,0.0611,0.0651,0.0662,0.0715,0.0706,0.0719,0.0664,0.0609,0.0583,0.0497,0.0518,0.0504,0.0616,0.0394,0.0392,0.0391,0.039,0.0389,0.0388,0.0664,0.0687,0.0719,0.0798,0.0854,0.0834,0.0909,0.0821,0.0706,0.073,0.0748,0.0746,0.0593,0.0732,0.0733,0.0733,0.0734,0.0734,0.0735,0.07,0.0738,0.0817,0.0895,0.0964,0.1045,0.1054,0.1056,0.0988,0.0897,0.0896,0.0629,0.0618,0.0612,0.0743,0.0741,0.074,0.074,0.0739,0.0766,0.078,0.0908,0.0989,0.1173,0.1348,0.1347,0.1379,0.1317,0.1294,0.0981,0.0972,0.0939,0.0921,0.0921,0.1124,0.1124,0.1124,0.1124,0.0803,0.0822,0.1006,0.1168,0.1359,0.1497,0.1716,0.165,0.1425,0.1243,0.1237,0.1182,0.1165,0.1138,0.1115,0.1115,0.1369,0.1369,0.137,0.0853,0.0909,0.1053,0.1221,0.1455,0.1681,0.19,0.1846,0.1487,0.1373,0.1211,0.1154,0.1054,0.1035,0.097,0.0942,0.0932,0,0]}],[{"header":{"parameterUnit":"m.s-1","parameterCategory":2,"la1":30.2992,"la2":30.254,"lo1":-89.0895,"lo2":-89.0443,"dy":0.0025,"dx":0.0025,"nx":19,"ny":19,"refTime":"2026-03-12T03:00:00:Z","depth":"4","parameterNumber":2,"parameterNumberName":"U-component_of_CURRENTS"},"data":[0,0,0,0.1832,0.1836,0.2029,0.203,0.2189,0.219,0,0,0,0,0,0,0,0,0,0,0,0.1771,0.1773,0.1831,0.1836,0.2029,0.203,0.2189,0.219,0,0,0,0,0,0,0,0,0,0,0,0.177,0.1772,0.1774,0.1837,0.2029,0.203,0.2189,0.2065,0,0,0,0,0,0,0,0,0,0,0.1888,0.1849,0.1772,0.1774,0.1838,0.2029,0.203,0.206,0.2073,0.2076,0,0.212,0,0.2155,0.2199,0.2199,0,0,0,0.1837,0.1839,0.1886,0.1775,0.184,0.2029,0.1942,0.2068,0.2082,0.2093,0.2122,0.2129,0.2158,0.22,0.2201,0.2337,0.2337,0,0,0.1826,0.1808,0.1877,0.1896,0.1906,0.1936,0.1948,0.2077,0.21,0.2123,0.2133,0.216,0.2201,0.2202,0.2336,0.2337,0,0,0,0.1795,0.1801,0.1847,0.1888,0.1929,0.1942,0.1956,0.2094,0.2109,0.2135,0.2162,0.2201,0.2203,0.2336,0.2337,0.2398,0,0,0,0.1788,0.1782,0.1842,0.1833,0.1927,0.2027,0.197,0.2101,0.2116,0.2161,0.2202,0.2204,0.2335,0.2336,0.2395,0.2385,0,0,0,0.1759,0.1779,0.1806,0.1832,0.1914,0.2026,0.205,0.2105,0.2132,0.22,0.2205,0.2335,0.2336,0.2392,0.2382,0.2474,0,0,0,0.1727,0.1761,0.1806,0.186,0.1913,0.2015,0.205,0.2143,0.2203,0.2202,0.2335,0.2337,0.2392,0.238,0.247,0.2168,0,0,0,0.1739,0.1763,0.1792,0.1836,0.1921,0.1987,0.2094,0.2192,0.222,0.2285,0.229,0.2396,0.2381,0.2473,0.2245,0,0,0,0,0.1775,0.1798,0.1832,0.1903,0.1983,0.2082,0.2181,0.223,0.2336,0.2263,0.2405,0.2393,0.2449,0.2263,0.2343,0.2343,0.2342,0.2342,0.2342,0.1749,0.1802,0.1857,0.1943,0.2019,0.2161,0.2242,0.2328,0.2364,0.2426,0.2451,0.2565,0.237,0.2479,0.2479,0.2479,0.248,0.248,0.248,0.1748,0.1769,0.1868,0.1941,0.2059,0.2166,0.232,0.2387,0.2529,0.2511,0.2566,0.2348,0.2486,0.2485,0.2484,0.2483,0.2483,0.2483,0.2482,0.17,0.1715,0.179,0.1904,0.2036,0.2184,0.2314,0.2461,0.2559,0.2625,0.2483,0.2616,0.2604,0.2698,0.2699,0.2699,0.2699,0.27,0.27,0.1605,0.1677,0.1733,0.1867,0.195,0.2104,0.2346,0.2437,0.2589,0.2497,0.2668,0.2639,0.2632,0.2617,0.2706,0.2705,0.2704,0.2703,0.2703,0.1519,0.1567,0.1631,0.1708,0.188,0.197,0.2233,0.2349,0.2445,0.2429,0.2442,0.2453,0.2406,0.2405,0.238,0.2403,0.2399,0.2396,0,0.1443,0.1475,0.1545,0.1618,0.17,0.1879,0.1928,0.2077,0.2215,0.2139,0.2443,0.2454,0.246,0.2402,0.2396,0.2362,0,0,0,0.1385,0.1421,0.1434,0.1526,0.1601,0.173,0.193,0.1919,0.2184,0.2181,0.2307,0.233,0.2549,0.2723,0.2679,0.267,0.2645,0,0]},{"header":{"parameterUnit":"m.s-1","parameterCategory":2,"la1":30.2992,"la2":30.254,"lo1":-89.0895,"lo2":-89.0443,"dy":0.0025,"dx":0.0025,"nx":19,"ny":19,"refTime":"2026-03-12T03:00:00:Z","depth":"4","parameterNumber":3,"parameterNumberName":"V-component_of_CURRENTS"},"data":[0,0,0,0.0156,0.0156,0.0138,0.0138,0.0069,0.0069,0,0,0,0,0,0,0,0,0,0,0,0.0163,0.0163,0.0156,0.0156,0.0138,0.0138,0.0069,0.0069,0,0,0,0,0,0,0,0,0,0,0,0.0163,0.0163,0.0163,0.0156,0.0138,0.0138,0.0069,0.0092,0,0,0,0,0,0,0,0,0,0,0.0115,0.013,0.0163,0.0163,0.0156,0.0138,0.0138,0.0094,0.0091,0.0067,0,0.0072,0,0.0071,0.0064,0.0063,0,0,0,0.0147,0.0133,0.013,0.0163,0.0156,0.0138,0.0144,0.0092,0.0089,0.0063,0.0071,0.0069,0.007,0.0063,0.0063,0.005,0.005,0,0,0.0148,0.0153,0.0132,0.0128,0.016,0.0144,0.0143,0.0091,0.0088,0.0071,0.0067,0.0069,0.0063,0.0062,0.005,0.005,0,0,0,0.0157,0.0154,0.0153,0.013,0.0132,0.0144,0.0143,0.0091,0.0091,0.0067,0.0068,0.0062,0.0062,0.0049,0.005,0.015,0,0,0,0.0157,0.016,0.0154,0.0156,0.0134,0.0118,0.0144,0.0095,0.0089,0.0069,0.0062,0.0061,0.0049,0.0049,0.0147,0.02,0,0,0,0.0162,0.016,0.0162,0.0156,0.0153,0.0119,0.0116,0.0094,0.009,0.0063,0.0061,0.0048,0.0049,0.0143,0.0194,0.0226,0,0,0,0.0162,0.0184,0.0162,0.0191,0.0153,0.0175,0.0116,0.0118,0.0103,0.0062,0.0049,0.005,0.0142,0.019,0.0222,0.0246,0,0,0,0.0195,0.0188,0.0208,0.0189,0.0229,0.0177,0.0209,0.0157,0.0106,0.006,0.006,0.0148,0.0193,0.0225,0.03,0,0,0,0,0.0223,0.0239,0.0247,0.0264,0.0263,0.0272,0.0221,0.0194,0.0163,0.0102,0.0138,0.0164,0.0181,0.0183,0.0054,0.0054,0.0054,0.0054,0.0054,0.0267,0.0278,0.0324,0.034,0.0354,0.0331,0.033,0.0281,0.022,0.0222,0.0239,0.0324,0.0331,0.0224,0.0224,0.0225,0.0225,0.0225,0.0226,0.0335,0.0366,0.0391,0.0441,0.0447,0.0469,0.0435,0.0396,0.038,0.0317,0.0328,0.0281,0.0235,0.0234,0.0232,0.0231,0.023,0.023,0.0229,0.0366,0.0385,0.0423,0.0501,0.0563,0.0564,0.0622,0.0567,0.0481,0.0499,0.0472,0.0387,0.0386,0.0497,0.0497,0.0498,0.0498,0.0498,0.0499,0.0375,0.0416,0.0487,0.057,0.0639,0.0716,0.0737,0.0729,0.0644,0.0595,0.0527,0.0415,0.0406,0.04,0.0505,0.0504,0.0503,0.0502,0.0502,0.0402,0.0425,0.0532,0.0609,0.0776,0.0839,0.0875,0.0841,0.0832,0.0762,0.0629,0.0621,0.0584,0.057,0.0568,0.0727,0.0728,0.0729,0,0.0412,0.0433,0.0581,0.0717,0.0857,0.0918,0.0961,0.094,0.0813,0.0799,0.0782,0.0633,0.0626,0.0581,0.0571,0.0569,0,0,0,0.0432,0.0479,0.0586,0.073,0.0897,0.0947,0.0974,0.0952,0.084,0.0828,0.0747,0.0742,0.0634,0.0523,0.0445,0.0435,0.0421,0,0]}]]